Location: B�di�
(14.6834°N, 3.1047°W)
Time: 14:59:20
(UTC+00:00)

Timation 1 Rocket - Pass Details

Date: 24 January 2020
Orbit: 896 x 911 km, 70.0° (Epoch: 23 February)

Event Time Altitude Azimuth Distance (km) Brightness Sun altitude
Rises 18:50:01 0° 188° (S) 3,500 7.8 -10.7°
Reaches altitude 10° 18:52:32 10° 184° (S) 2,562 7.0 -11.2°
Maximum altitude 18:58:21 59° 106° (ESE) 1,029 4.4 -12.6°
Drops below altitude 10° 19:04:10 10° 28° (NNE) 2,572 6.3 -13.9°
Enters shadow 19:04:56 - 26° (NNE) 2,857 6.6 -14.1°
